Total_Precipitation_Accumulation
0.00 0.03 0.12 0.35 1.00 1.37 1.32 0.71 0.49 0.37 0.35 0.44 0.44 0.39 0.44 0.57 0.72 1.07 0.59 0.19 0.06 0.02 0.03 0.08 0.11 0.08 0.07 0.08 0.10 0.13 0.13 0.14 0.12 0.11 0.10 0.07 0.06 0.06 0.07 0.09 0.10 0.11 0.11 0.10 0.09 0.08 0.09 0.09 0.10
0.00 0.03 0.14 0.49 1.23 1.83 1.41 0.66 0.40 0.27 0.35 0.50 0.58 0.52 0.41 0.44 0.33 0.24 0.25 0.34 0.10 0.03 0.03 0.04 0.09 0.10 0.08 0.07 0.10 0.12 0.13 0.13 0.12 0.11 0.10 0.09 0.09 0.09 0.09 0.10 0.12 0.13 0.12 0.10 0.09 0.08 0.08 0.07 0.08
0.01 0.06 0.20 0.55 0.93 1.17 0.98 0.53 0.29 0.24 0.34 0.53 0.59 0.44 0.38 0.47 0.33 0.18 0.17 0.22 0.11 0.06 0.03 0.04 0.07 0.09 0.09 0.09 0.09 0.10 0.11 0.11 0.11 0.11 0.10 0.10 0.11 0.12 0.11 0.12 0.14 0.14 0.12 0.10 0.09 0.07 0.06 0.07 0.09
0.02 0.08 0.22 0.41 0.49 0.45 0.39 0.32 0.27 0.27 0.37 0.41 0.50 0.49 0.35 0.37 0.30 0.20 0.18 0.17 0.11 0.08 0.06 0.08 0.10 0.10 0.09 0.09 0.09 0.09 0.09 0.10 0.11 0.11 0.11 0.12 0.12 0.12 0.14 0.14 0.15 0.15 0.12 0.09 0.08 0.07 0.06 0.07 0.09
0.02 0.07 0.19 0.33 0.28 0.28 0.30 0.30 0.31 0.35 0.40 0.50 0.60 0.66 0.57 0.34 0.27 0.31 0.35 0.30 0.20 0.16 0.13 0.12 0.15 0.15 0.12 0.11 0.11 0.11 0.10 0.11 0.12 0.13 0.13 0.12 0.13 0.16 0.16 0.15 0.14 0.15 0.13 0.09 0.08 0.07 0.07 0.09 0.12
0.01 0.04 0.12 0.18 0.16 0.19 0.27 0.29 0.29 0.36 0.48 0.67 0.69 0.66 0.60 0.46 0.41 0.43 0.41 0.47 0.46 0.30 0.22 0.17 0.20 0.21 0.18 0.16 0.16 0.15 0.14 0.14 0.14 0.13 0.13 0.13 0.14 0.15 0.15 0.15 0.15 0.17 0.16 0.12 0.09 0.07 0.09 0.12 0.14
0.01 0.04 0.08 0.12 0.11 0.14 0.18 0.27 0.37 0.39 0.50 0.65 0.56 0.54 0.68 0.69 0.61 0.54 0.48 0.52 0.44 0.37 0.35 0.30 0.22 0.21 0.22 0.25 0.26 0.24 0.20 0.20 0.18 0.14 0.13 0.13 0.15 0.17 0.17 0.17 0.19 0.20 0.19 0.17 0.14 0.11 0.11 0.12 0.15
0.01 0.03 0.04 0.07 0.06 0.11 0.12 0.18 0.32 0.45 0.50 0.50 0.51 0.68 1.00 0.86 0.57 0.55 0.57 0.57 0.54 0.53 0.49 0.46 0.40 0.34 0.27 0.26 0.30 0.31 0.29 0.26 0.23 0.19 0.18 0.18 0.21 0.23 0.24 0.22 0.25 0.28 0.26 0.25 0.25 0.22 0.20 0.21 0.23
0.00 0.01 0.03 0.03 0.04 0.08 0.10 0.17 0.26 0.39 0.43 0.52 0.66 0.75 0.80 0.65 0.51 0.61 0.72 0.75 0.81 0.76 0.68 0.57 0.50 0.45 0.37 0.29 0.28 0.32 0.33 0.32 0.29 0.30 0.30 0.32 0.41 0.53 0.57 0.55 0.60 0.57 0.54 0.51 0.47 0.47 0.45 0.39 0.31
0.00 0.01 0.04 0.02 0.03 0.05 0.08 0.17 0.33 0.41 0.50 0.74 1.10 1.17 0.86 0.71 0.65 0.73 0.92 0.93 1.14 0.98 0.73 0.65 0.53 0.47 0.39 0.31 0.38 0.44 0.45 0.48 0.44 0.56 0.63 0.74 0.88 0.87 0.71 0.92 1.03 0.99 1.03 0.92 0.88 1.04 0.88 0.67 0.59
0.00 0.00 0.00 0.01 0.01 0.03 0.08 0.14 0.22 0.36 0.68 1.13 1.28 1.14 0.89 0.97 0.97 0.94 1.15 1.17 1.10 1.03 1.06 0.99 0.80 0.67 0.58 0.61 0.54 0.56 0.65 0.79 0.76 0.78 0.94 1.17 1.09 0.91 0.82 0.95 1.26 1.41 1.50 1.42 1.50 1.60 1.21 1.17 1.36
0.00 0.00 0.00 0.01 0.01 0.03 0.04 0.07 0.14 0.36 0.84 0.99 0.97 0.92 0.88 1.07 1.08 1.15 1.42 1.48 1.53 1.37 1.55 1.67 1.37 1.23 1.04 0.93 0.83 0.74 0.75 0.91 1.05 1.23 1.30 1.46 1.50 1.35 1.20 1.23 1.42 1.60 1.74 2.05 2.05 1.93 1.78 1.75 1.67
0.00 0.00 0.00 0.00 0.02 0.05 0.04 0.08 0.25 0.55 0.76 0.67 0.57 0.80 0.87 1.14 1.40 1.60 1.74 1.70 1.95 1.98 2.11 2.34 1.92 1.75 1.63 1.55 1.39 1.14 1.16 1.23 1.33 1.56 1.67 1.78 1.94 1.91 1.81 1.73 1.68 1.56 1.74 2.07 2.25 2.16 2.16 2.10 1.98
0.00 0.00 0.00 0.01 0.02 0.04 0.07 0.15 0.35 0.62 0.56 0.54 0.69 1.09 1.29 1.23 1.51 1.91 2.02 2.09 2.39 2.53 2.61 2.69 2.53 2.46 2.28 2.06 1.99 1.85 1.54 1.52 1.53 1.62 1.64 1.84 2.07 2.30 2.37 2.27 2.11 1.82 1.76 1.87 2.18 2.29 2.42 2.31 2.18
0.00 0.01 0.04 0.06 0.07 0.06 0.09 0.33 0.48 0.59 0.48 0.55 0.80 1.14 1.47 1.39 1.54 1.81 2.00 2.46 3.12 3.41 3.23 3.17 3.08 3.24 3.03 2.64 2.32 2.03 1.87 1.85 1.91 1.91 1.84 2.00 2.24 2.44 2.45 2.23 1.90 1.70 1.77 1.87 1.82 1.88 2.19 1.96 1.81
0.01 0.04 0.14 0.16 0.11 0.10 0.16 0.55 0.67 0.63 0.74 0.85 1.05 1.23 1.49 1.48 1.53 1.74 2.18 2.92 3.71 4.16 3.98 3.75 3.35 3.48 3.44 3.13 2.83 2.51 2.25 2.26 2.13 1.94 1.84 1.89 2.10 2.09 2.14 1.79 1.42 1.49 1.71 1.78 1.77 1.74 1.84 1.81 1.85
0.03 0.07 0.14 0.21 0.15 0.13 0.22 0.76 0.78 0.57 0.83 1.09 1.04 1.20 1.42 1.54 1.63 1.74 2.31 3.08 3.76 4.40 4.55 4.51 4.35 3.98 3.74 3.51 3.27 3.05 2.80 2.41 2.04 1.90 1.79 1.66 1.56 1.55 1.65 1.38 1.27 1.36 1.50 1.56 1.53 1.69 1.79 1.68 1.74
0.06 0.09 0.15 0.22 0.17 0.16 0.28 0.60 0.68 0.70 0.84 1.00 1.00 1.04 1.15 1.39 1.70 1.82 2.18 2.83 3.55 4.25 4.73 4.91 4.87 4.44 3.93 3.46 3.03 2.92 2.70 2.38 2.09 1.87 1.66 1.40 1.27 1.25 1.40 1.30 1.19 1.30 1.39 1.39 1.54 1.66 1.72 1.49 1.46
0.06 0.09 0.18 0.23 0.17 0.18 0.33 0.51 0.65 0.74 0.96 1.09 1.08 1.05 1.07 1.36 1.73 1.93 2.24 2.63 3.33 3.94 4.53 4.63 4.79 4.20 3.51 3.00 2.59 2.41 2.17 1.91 1.82 1.69 1.51 1.40 1.26 1.20 1.33 1.22 1.12 1.11 1.15 1.14 1.28 1.38 1.37 1.15 1.34
0.09 0.12 0.20 0.22 0.15 0.16 0.33 0.60 0.78 0.86 0.83 0.90 0.90 0.93 0.98 1.37 1.79 2.17 2.70 3.02 2.99 3.40 4.02 4.03 3.67 3.35 2.86 2.40 2.17 2.00 1.89 1.68 1.50 1.29 1.17 1.07 1.03 1.05 1.08 1.04 0.92 0.91 0.95 0.93 1.01 1.13 1.12 0.99 1.24
0.12 0.14 0.18 0.16 0.15 0.21 0.39 0.74 1.02 0.95 0.69 0.63 0.67 0.71 0.86 1.20 1.62 2.03 2.51 2.87 2.79 3.03 3.08 2.65 2.36 2.30 2.19 1.92 1.80 1.75 1.68 1.48 1.20 0.95 0.82 0.78 0.78 0.77 0.73 0.72 0.73 0.79 0.78 0.81 0.87 1.02 1.13 1.00 1.01
0.08 0.08 0.07 0.07 0.12 0.28 0.42 0.93 1.29 1.10 0.81 0.65 0.64 0.73 0.80 0.90 1.06 1.35 1.62 2.00 2.20 2.20 2.09 1.94 1.81 1.74 1.83 1.76 1.59 1.47 1.20 1.02 0.84 0.70 0.71 0.71 0.65 0.59 0.55 0.55 0.64 0.70 0.73 0.80 0.73 0.78 0.94 1.00 0.90
0.05 0.04 0.05 0.08 0.12 0.27 0.47 0.79 1.16 1.15 1.08 0.90 0.75 0.74 0.66 0.61 0.66 0.81 0.92 1.12 1.35 1.49 1.52 1.43 1.60 1.68 1.66 1.57 1.46 1.40 1.16 0.93 0.78 0.74 0.78 0.74 0.67 0.59 0.51 0.49 0.50 0.59 0.66 0.72 0.73 0.76 0.79 0.85 0.83
0.04 0.05 0.12 0.25 0.37 0.69 0.68 0.72 1.05 1.00 0.93 0.91 0.73 0.57 0.46 0.41 0.49 0.59 0.60 0.68 0.80 0.90 0.99 1.06 1.21 1.41 1.43 1.36 1.29 1.26 1.16 0.97 0.79 0.70 0.68 0.63 0.58 0.55 0.51 0.49 0.50 0.51 0.52 0.56 0.63 0.67 0.71 0.76 0.77
0.05 0.09 0.32 0.69 1.00 1.16 0.72 0.68 0.88 0.75 0.76 0.79 0.57 0.35 0.30 0.31 0.36 0.45 0.46 0.46 0.52 0.57 0.65 0.74 0.85 0.99 1.08 1.12 1.10 1.08 1.11 0.96 0.78 0.60 0.56 0.51 0.44 0.43 0.46 0.47 0.53 0.59 0.59 0.58 0.59 0.63 0.69 0.74 0.79
0.06 0.07 0.19 0.34 0.49 0.68 0.72 1.08 1.00 0.62 0.58 0.47 0.28 0.18 0.18 0.26 0.26 0.27 0.29 0.31 0.36 0.35 0.43 0.51 0.56 0.64 0.74 0.89 1.00 0.91 0.92 0.80 0.68 0.69 0.60 0.48 0.38 0.40 0.48 0.53 0.56 0.59 0.63 0.64 0.71 0.73 0.76 0.81 0.83
0.05 0.05 0.06 0.10 0.15 0.42 0.79 1.15 0.93 0.50 0.45 0.30 0.19 0.12 0.13 0.15 0.17 0.17 0.18 0.18 0.22 0.24 0.28 0.34 0.47 0.57 0.59 0.63 0.77 0.82 0.79 0.73 0.72 0.73 0.65 0.52 0.44 0.38 0.42 0.49 0.59 0.60 0.61 0.66 0.75 0.78 0.82 0.89 0.91
0.06 0.06 0.06 0.07 0.15 0.32 0.65 1.00 1.00 0.69 0.51 0.31 0.20 0.15 0.16 0.15 0.15 0.15 0.13 0.13 0.18 0.21 0.25 0.34 0.43 0.53 0.62 0.61 0.60 0.63 0.74 0.76 0.79 0.76 0.62 0.55 0.49 0.45 0.44 0.45 0.51 0.54 0.56 0.63 0.76 0.81 0.87 1.00 1.05
0.08 0.08 0.09 0.10 0.12 0.21 0.48 0.70 0.57 0.52 0.38 0.27 0.23 0.24 0.19 0.14 0.12 0.11 0.10 0.12 0.18 0.21 0.26 0.32 0.40 0.56 0.68 0.62 0.62 0.68 0.76 0.79 0.79 0.88 0.80 0.63 0.57 0.51 0.44 0.39 0.41 0.43 0.45 0.51 0.66 0.82 0.94 1.05 1.09
0.10 0.10 0.11 0.14 0.16 0.17 0.26 0.43 0.36 0.37 0.30 0.29 0.23 0.23 0.18 0.15 0.13 0.12 0.12 0.15 0.20 0.26 0.30 0.35 0.43 0.53 0.60 0.63 0.66 0.68 0.74 0.75 0.72 0.75 0.79 0.72 0.60 0.52 0.48 0.45 0.43 0.37 0.35 0.44 0.58 0.73 0.90 1.03 1.13